Regional Weather Roundup
Issued by NWS Upton, NY

Current Version | Previous Version | Graphics & Text | Print | Product List | Glossary Off
Versions: 1 2 3 4 5 6 7 8 9 10 11 12 13 14 15 16 17 18 19 20 21 22 23 24 25 26 27 28 29 30 31 32 33 34 35 36 37 38 39 40 41 42 43 44 45 46 47 48 49 50

000
ASUS41 KOKX 011205
RWROKX

REGIONAL WEATHER ROUNDUP
NATIONAL WEATHER SERVICE NEW YORK NY
700 AM EST SUN FEB 01 2015

NOTE: "FAIR" INDICATES FEW OR NO CLOUDS BELOW 12,000 FEET WITH NO
SIGNIFICANT WEATHER AND/OR OBSTRUCTIONS TO VISIBILITY.

NYZ071-072-176-178-NJZ106-104-011300-
NEW YORK CITY METRO AREA


CITY           SKY/WX    TMP DP  RH WIND       PRES   REMARKS
CENTRAL PARK   CLOUDY    24  10  55 CALM      30.22F
LAGUARDIA APRT MOCLDY    24  11  57 SW3       30.22S
KENNEDY INTL   MOCLDY    24  11  57 W9        30.24S WCI  14
NEWARK/LIBERTY CLOUDY    21  11  65 W9        30.22F WCI  11
BRNX BOT. GARD   N/A    N/A N/A N/A SW5       30.21F
TETERBORO      CLOUDY    20   8  60 CALM      30.21F
$$

NYZ177-179-078>081-011300-
LONG ISLAND NEW YORK

CITY           SKY/WX    TMP DP  RH WIND       PRES   REMARKS
FARMINGDALE    CLEAR     20  10  65 W8        30.22R WCI  10
ISLIP          PTCLDY    10   1  67 CALM      30.20R
SHIRLEY        CLEAR     12   4  70 CALM      30.22R
WESTHAMPTON    CLEAR     -2  -9  72 CALM      30.23R
MONTAUK POINT    N/A     24  16  71 W9        30.20R WCI  14
$$

NYZ052-065-067-011300-
HUDSON VALLEY

CITY           SKY/WX    TMP DP  RH WIND       PRES   REMARKS
WHITE PLAINS   MOCLDY    19   8  62 SW5       30.17S WCI  12
NEWBURGH       MOCLDY    18  10  73 W9        30.16S WCI   6
MONTGOMERY     MOCLDY    14   6  70 SW7       30.16R WCI   4
POUGHKEEPSIE   MOCLDY    20   9  62 SW6       30.16S WCI  12
ALBANY         FLURRIES  14   7  73 S7        30.15R WCI   4
$$

NJZ001-105-106-008-010-013-015-019>022-104-011300-
NEW JERSEY

CITY           SKY/WX    TMP DP  RH WIND       PRES   REMARKS
NEWARK/LIBERTY CLOUDY    21  11  65 W9        30.22F WCI  11
TETERBORO      CLOUDY    20   8  60 CALM      30.21F
CALDWELL       CLOUDY    19   8  62 CALM      30.21F
MORRISTOWN     CLOUDY    16  12  86 CALM      30.22R
SOMERVILLE     CLOUDY    16   9  74 CALM      30.22S
SUSSEX         CLOUDY    14   7  73 CALM      30.17S
ANDOVER          N/A     19  10  68 S3        30.18S
TRENTON        CLOUDY    25  13  60 W5        30.23S WCI  19
MILLVILLE      PTCLDY    18  13  80 CALM      30.26F
ATLANTIC CITY  CLOUDY    22  11  62 CALM      30.27S
WRIGHTSTOWN    CLOUDY    24  14  66 W5        30.23R WCI  18
TOMS RIVER     CLOUDY    25  14  63 CALM      30.24F
BELMAR         CLOUDY    23   9  54 W6        30.23R WCI  16
$$

PAZ047>061-062-071-011300-
EASTERN PENNSYLVANIA

CITY           SKY/WX    TMP DP  RH WIND       PRES   REMARKS
PHILADELPHIA   CLOUDY    27  14  58 S3        30.26F
ALLENTOWN      CLOUDY    25  14  63 SW6       30.21S WCI  18
SCRANTON       CLOUDY    22  12  65 S6        30.15S WCI  14
$$

CTZ002-004>006-009-010-012-RIZ004-006-007-MAZ004-011-015-011300-
SOUTHERN NEW ENGLAND
 IN CT

CITY           SKY/WX    TMP DP  RH WIND       PRES   REMARKS
BRADLEY INTL   FLURRIES  16   6  65 SW7       30.16R WCI   6
HARTFORD       CLOUDY    15   5  64 S5        30.19S WCI   8
DANBURY        PTCLDY     1  -5  75 CALM      30.16S
WTRBRY/OXFORD  CLOUDY    14   1  57 SW5       30.13R WCI   6
BRIDGEPORT     PTCLDY    13   6  74 SW3       30.19S
MERIDEN        CLOUDY     8   3  80 CALM      30.19R
NEW HAVEN      MOCLDY     9   2  73 S3        30.18S
CHESTER        CLOUDY    18   9  68 SW6       30.15F WCI   9
GROTON         CLOUDY    16   8  71 W7        30.19R WCI   6
WILLIMANTIC    CLOUDY     6   0  76 CALM      30.17R

 IN RI

CITY           SKY/WX    TMP DP  RH WIND       PRES   REMARKS
PROVIDENCE     MOCLDY    14   6  70 W13       30.15S WCI   0
BLOCK ISLAND   CLEAR     25  14  63 W14G21    30.16R WCI  13
WESTERLY       MOCLDY    12   5  73 CALM      30.19R

 IN MA

CITY           SKY/WX    TMP DP  RH WIND       PRES   REMARKS
BOSTON         PTCLDY    13   3  64 SW12      30.14R WCI  -1
WORCESTER      MOCLDY   N/A N/A N/A SW9       30.06R
WESTFIELD      CLOUDY    17   8  67 SW14      30.13R WCI   3
PROVINCETOWN   CLEAR     19  10  68 W22       30.12R WCI   3
NANTUCKET      CLEAR     23  11  60 NW20G35   30.11R WCI   8
$$

ANZ330-335-338-340-345-350-353-355-011300-
COASTAL MARINE OBSERVATIONS


STATION/POSITION TIME  SKY/WX   TEMP    WIND        PRES    VSBY  WAVE
                                AIR SEA DIR/SP/G                  HT/PER
                 (UTC)          (F)     (DEG/KT/KT) (MB)    (MI)  (FT/S)
NY HARB ENTRANCE 1200            29 39  270/ 16/ 17 1022.9          3/ 3
4S FIRE IS       NOT AVBL
20S FIRE ISLAND  1100               41              1023.6          4/ 5
23SW MTP         1200                                 N/A           3/ 4
HUDSON CANYON    NOT AVBL
EXECUTION ROCKS  1200            26 32  250/ 12/ 16   N/A
WESTERN LI SOUND 1200            26     260/ 16/ 17   N/A           2/ 3
CENTRAL LI SOUND 1100            24 34  260/ 12/ 16   N/A           2/ 4
EASTERN LI SOUND NOT AVBL
ROBBINS REEF     1100            23     270/  8/ 10 1022.1
$$


>>>>>>>>>>>>>>>>>>>>>>>>>>>> KEY <<<<<<<<<<<<<<<<<<<<<<<<<<<
>                                                          <
>     SKY/WX - SKY CONDITION/PRESENT WEATHER               <
>     TMP    - TEMPERATURE IN FAHRENHEIT                   <
>     DP     - DEWPOINT IN FAHRENHEIT                      <
>     RH     - RELATIVE HUMIDITY IN PERCENT                <
>     WIND   - DIRECTION AND SPEED IN MPH                  <
>     PRES   - MEAN SEA LEVEL PRESSURE IN INCHES OF HG     <
>     WCI    - WIND CHILL INDEX                            <
>     VSB    - VISIBILITY IN MILES                         <
>     HX     - HEAT INDEX                                  <
>     TC     - TEMPERATURE IN CELSIUS                      <
>     VRB    - VARIABLE WIND DIRECTION                     <
>                                                          <
>>>>>>>>>>>>>>>>>>>>>>>>>>>> KEY <<<<<<<<<<<<<<<<<<<<<<<<<<<




USA.gov is the U.S. government's official web portal to all federal, state and local government web resources and services.